Content
SEND FEEDBACK

Daily
Averages
Monthly
Summary
United States of America

BROOKLYN, NEW YORK


Home > North America > United States > New York
Elevation: 2 feet     Latitude: 40 36N     Longitude: 073 59W

WEATHER
 
SELECT A DAY
Number of Records: 189,721;   Date Range: 1/1/95 - 12/19/14
 
SHARE

PRINT THIS DATA

[ ← Previous Day ]
WEATHER ALMANAC - SEPTEMBER 28, 2013
[ Next Day → ]
[ °C ]   °F
Weather ElementAverageHighLow
Temperature64.4 °F73 °F (2:51 pm)55.9 °F (6:51 am)
Dewpoint51.8 °F54 °F (7:51 am)48 °F (2:51 pm)
Humidity65.6 %87 % (6:51 am)41 % (2:51 pm)
Barometer30.29 in30.33 in (9:51 am)30.25 in (11:51 pm)
Wind Speed6.6 mph11.5 mph (9:51 am)
Weather ElementAverage
Visibility10 mi
Wind DirectionESE (96.5 °)

Weather ElementTotal
Precipitation---
Heating Degree Days0.5 (Base 65)
Growing Degree Days14.5 (Base 50)
Averaged from 23 records on September 28, 2013
WEATHER CONDITIONS BREAKOUT
WIND DIRECTION BREAKOUT
WEATHER BY HOUR - SEPTEMBER 28, 2013
[ °C ]   °F
Local TimeTemperatureDewpointHumidityBarometerVisibilityWind DirectionWind SpeedGust SpeedPrecipitationEventsConditions
1:51 AM62.1 °F52.0 °F70 %30.27 in10.0 miNE (50°)4.6 mphMostly Cloudy
2:51 AM59.0 °F52.0 °F78 %30.27 in10.0 miNNE (30°)4.6 mphScattered Clouds
3:51 AM57.0 °F51.1 °F81 %30.27 in10.0 miNorth (350°)5.8 mphPartly Cloudy
4:51 AM57.0 °F52.0 °F83 %30.27 in10.0 miNNE (20°)6.9 mphPartly Cloudy
5:51 AM57.0 °F52.0 °F83 %30.29 in10.0 miNorth (10°)5.8 mphPartly Cloudy
6:51 AM55.9 °F52.0 °F87 %30.30 in10.0 miNorth (360°)6.9 mphPartly Cloudy
7:51 AM57.9 °F54.0 °F87 %30.31 in10.0 miNorth (360°)6.9 mphPartly Cloudy
8:51 AM63.0 °F53.1 °F70 %30.32 in10.0 miNNE (20°)10.4 mphPartly Cloudy
9:51 AM66.9 °F51.1 °F57 %30.33 in10.0 miNNE (20°)11.5 mphPartly Cloudy
10:51 AM69.1 °F50.0 °F51 %30.33 in10.0 miNNE (20°)10.4 mphPartly Cloudy
11:51 AM72.0 °F50.0 °F46 %30.32 in10.0 miNNE (30°)9.2 mphScattered Clouds
12:51 PM71.1 °F50.0 °F47 %30.31 in10.0 miEast (100°)6.9 mphScattered Clouds
1:51 PM72.0 °F48.9 °F44 %30.29 in10.0 miVariable4.6 mphScattered Clouds
2:51 PM73.0 °F48.0 °F41 %30.28 in10.0 miNNE (30°)9.2 mphScattered Clouds
3:51 PM71.1 °F52.0 °F51 %30.27 in10.0 miSE (130°)10.4 mphScattered Clouds
4:51 PM70.0 °F51.1 °F51 %30.27 in10.0 miSE (130°)10.4 mphPartly Cloudy
5:51 PM69.1 °F52.0 °F54 %30.27 in10.0 miESE (120°)8.1 mphScattered Clouds
6:51 PM66.0 °F52.0 °F60 %30.27 in10.0 miESE (110°)5.8 mphScattered Clouds
7:51 PM64.0 °F53.1 °F67 %30.26 in10.0 miEast (100°)3.5 mphScattered Clouds
8:51 PM63.0 °F53.1 °F70 %30.27 in10.0 miENE (70°)3.5 mphClear
9:51 PM62.1 °F54.0 °F75 %30.27 in10.0 miEast (80°)3.5 mphMostly Cloudy
10:51 PM62.1 °F54.0 °F75 %30.27 in10.0 miEast (80°)3.5 mphMostly Cloudy
11:51 PM60.1 °F54.0 °F80 %30.25 in10.0 miCalmScattered Clouds
Hourly data recorded from KJFK, located miles away from Brooklyn, New York







STORIES FROM OUR PARTNERS